Total_Precipitation_Accumulation
0.05 0.06 0.22 0.27 0.28 0.27 0.27 0.28 0.25 0.22 0.22 0.23 0.25 0.26 0.25 0.26 0.26 0.27 0.29 0.33 0.36 0.32 0.34 0.38 0.37 0.36 0.35 0.33 0.32 0.31 0.26 0.22 0.22 0.24 0.33 0.39 0.36 0.29 0.25 0.23 0.19 0.27 0.36
0.04 0.06 0.16 0.20 0.23 0.25 0.26 0.24 0.21 0.18 0.18 0.18 0.17 0.19 0.20 0.21 0.23 0.24 0.28 0.34 0.38 0.33 0.32 0.35 0.38 0.39 0.37 0.36 0.36 0.34 0.25 0.17 0.14 0.14 0.17 0.24 0.29 0.28 0.24 0.24 0.25 0.38 0.41
0.02 0.04 0.10 0.15 0.19 0.23 0.23 0.21 0.17 0.15 0.13 0.13 0.12 0.14 0.16 0.18 0.21 0.23 0.27 0.28 0.31 0.35 0.34 0.34 0.43 0.45 0.42 0.40 0.38 0.34 0.27 0.16 0.10 0.09 0.09 0.18 0.28 0.33 0.29 0.26 0.27 0.31 0.35
0.01 0.02 0.04 0.12 0.18 0.21 0.22 0.20 0.16 0.15 0.12 0.12 0.12 0.13 0.15 0.17 0.19 0.22 0.27 0.29 0.33 0.41 0.44 0.47 0.53 0.51 0.45 0.40 0.37 0.32 0.30 0.20 0.10 0.08 0.07 0.17 0.33 0.40 0.34 0.30 0.26 0.27 0.30
0.00 0.01 0.04 0.11 0.17 0.19 0.20 0.21 0.19 0.16 0.13 0.12 0.13 0.12 0.14 0.16 0.17 0.20 0.23 0.27 0.34 0.44 0.45 0.44 0.47 0.46 0.42 0.39 0.35 0.36 0.40 0.29 0.14 0.06 0.05 0.12 0.27 0.44 0.38 0.36 0.29 0.25 0.27
0.00 0.01 0.03 0.10 0.17 0.18 0.21 0.25 0.24 0.18 0.14 0.14 0.14 0.14 0.14 0.15 0.14 0.16 0.18 0.19 0.24 0.31 0.33 0.36 0.40 0.40 0.39 0.36 0.31 0.34 0.43 0.38 0.16 0.04 0.05 0.09 0.21 0.39 0.38 0.37 0.33 0.27 0.25
0.00 0.01 0.03 0.10 0.17 0.18 0.20 0.25 0.25 0.19 0.15 0.14 0.15 0.17 0.16 0.15 0.15 0.15 0.13 0.13 0.14 0.17 0.21 0.29 0.38 0.42 0.42 0.35 0.31 0.36 0.43 0.35 0.13 0.10 0.12 0.13 0.19 0.28 0.40 0.41 0.35 0.32 0.29
0.00 0.01 0.03 0.11 0.18 0.19 0.20 0.23 0.28 0.23 0.19 0.16 0.19 0.20 0.19 0.18 0.18 0.19 0.16 0.14 0.13 0.12 0.15 0.20 0.32 0.49 0.49 0.36 0.34 0.40 0.39 0.21 0.08 0.08 0.11 0.15 0.19 0.32 0.61 0.68 0.48 0.37 0.33
0.01 0.01 0.04 0.10 0.14 0.18 0.19 0.23 0.28 0.25 0.22 0.20 0.22 0.23 0.22 0.20 0.19 0.21 0.20 0.18 0.18 0.16 0.15 0.16 0.25 0.44 0.47 0.39 0.40 0.44 0.31 0.12 0.04 0.11 0.10 0.19 0.18 0.39 0.74 0.82 0.69 0.50 0.39
0.01 0.02 0.04 0.09 0.12 0.15 0.17 0.21 0.25 0.25 0.24 0.23 0.22 0.21 0.18 0.18 0.19 0.18 0.15 0.14 0.16 0.18 0.17 0.15 0.17 0.29 0.36 0.36 0.44 0.40 0.18 0.06 0.02 0.07 0.17 0.17 0.16 0.41 0.81 0.90 0.83 0.68 0.53
0.02 0.03 0.05 0.10 0.12 0.13 0.14 0.17 0.21 0.22 0.21 0.21 0.20 0.17 0.17 0.16 0.15 0.15 0.12 0.11 0.14 0.16 0.17 0.19 0.19 0.23 0.28 0.27 0.33 0.26 0.09 0.04 0.04 0.08 0.16 0.15 0.17 0.39 0.77 0.93 0.88 0.80 0.71
0.03 0.04 0.05 0.09 0.12 0.13 0.12 0.14 0.17 0.17 0.16 0.15 0.14 0.14 0.16 0.18 0.18 0.16 0.14 0.14 0.16 0.15 0.17 0.21 0.24 0.23 0.22 0.20 0.32 0.26 0.12 0.09 0.09 0.06 0.09 0.08 0.19 0.39 0.64 0.84 0.94 0.87 0.82
0.03 0.04 0.05 0.08 0.11 0.12 0.11 0.12 0.14 0.15 0.16 0.16 0.16 0.17 0.21 0.24 0.24 0.21 0.18 0.16 0.16 0.15 0.16 0.20 0.24 0.22 0.27 0.40 0.54 0.42 0.28 0.22 0.13 0.07 0.04 0.05 0.15 0.30 0.49 0.67 0.87 0.98 0.97
0.05 0.05 0.06 0.09 0.10 0.11 0.11 0.11 0.12 0.13 0.13 0.14 0.16 0.16 0.18 0.20 0.19 0.18 0.15 0.14 0.13 0.14 0.15 0.17 0.19 0.23 0.25 0.32 0.36 0.33 0.27 0.24 0.17 0.12 0.07 0.06 0.09 0.16 0.29 0.46 0.66 0.92 1.02
0.06 0.06 0.07 0.08 0.10 0.11 0.12 0.12 0.10 0.11 0.11 0.10 0.10 0.11 0.11 0.12 0.13 0.13 0.11 0.10 0.10 0.10 0.10 0.11 0.12 0.14 0.18 0.21 0.21 0.21 0.22 0.21 0.17 0.16 0.14 0.11 0.09 0.11 0.18 0.30 0.44 0.68 0.94
0.06 0.06 0.07 0.07 0.09 0.11 0.11 0.12 0.12 0.11 0.11 0.12 0.11 0.10 0.10 0.09 0.08 0.08 0.08 0.07 0.07 0.07 0.07 0.08 0.08 0.09 0.11 0.15 0.14 0.14 0.15 0.14 0.13 0.14 0.15 0.15 0.12 0.11 0.16 0.24 0.33 0.44 0.71
0.06 0.07 0.07 0.08 0.09 0.11 0.11 0.11 0.12 0.11 0.11 0.13 0.12 0.11 0.10 0.09 0.08 0.07 0.06 0.06 0.06 0.07 0.10 0.14 0.16 0.17 0.18 0.19 0.17 0.19 0.18 0.16 0.15 0.17 0.18 0.18 0.18 0.16 0.18 0.28 0.34 0.37 0.51
0.05 0.07 0.08 0.08 0.08 0.10 0.12 0.13 0.13 0.13 0.12 0.12 0.12 0.12 0.12 0.11 0.11 0.10 0.08 0.06 0.06 0.07 0.11 0.17 0.22 0.23 0.23 0.24 0.23 0.26 0.27 0.26 0.21 0.22 0.24 0.22 0.22 0.20 0.19 0.24 0.33 0.38 0.48
0.06 0.06 0.08 0.09 0.08 0.09 0.12 0.15 0.14 0.15 0.14 0.12 0.13 0.14 0.14 0.14 0.14 0.14 0.12 0.10 0.08 0.10 0.12 0.17 0.20 0.23 0.24 0.27 0.28 0.30 0.34 0.36 0.33 0.28 0.25 0.24 0.23 0.21 0.22 0.24 0.28 0.32 0.43
0.06 0.07 0.07 0.08 0.09 0.10 0.12 0.18 0.18 0.16 0.15 0.13 0.11 0.12 0.13 0.14 0.14 0.14 0.13 0.12 0.13 0.15 0.16 0.18 0.21 0.23 0.25 0.29 0.33 0.32 0.35 0.36 0.35 0.32 0.29 0.31 0.30 0.24 0.23 0.24 0.27 0.27 0.30
0.05 0.07 0.08 0.08 0.09 0.11 0.12 0.15 0.17 0.14 0.13 0.13 0.10 0.09 0.10 0.11 0.12 0.12 0.11 0.12 0.12 0.13 0.16 0.20 0.21 0.21 0.22 0.24 0.27 0.24 0.22 0.24 0.27 0.26 0.25 0.28 0.32 0.35 0.34 0.31 0.29 0.28 0.29
0.03 0.05 0.08 0.08 0.07 0.08 0.09 0.11 0.14 0.13 0.12 0.12 0.12 0.10 0.10 0.10 0.10 0.11 0.11 0.12 0.12 0.11 0.10 0.11 0.14 0.17 0.16 0.17 0.24 0.27 0.20 0.17 0.17 0.17 0.18 0.22 0.29 0.36 0.39 0.40 0.40 0.36 0.33
0.02 0.04 0.06 0.07 0.07 0.07 0.08 0.11 0.16 0.17 0.15 0.14 0.14 0.13 0.11 0.10 0.09 0.09 0.09 0.11 0.13 0.14 0.12 0.10 0.11 0.15 0.15 0.13 0.17 0.32 0.40 0.27 0.17 0.12 0.14 0.16 0.20 0.21 0.24 0.29 0.34 0.38 0.39
0.01 0.02 0.05 0.08 0.08 0.07 0.08 0.11 0.14 0.16 0.14 0.12 0.12 0.12 0.12 0.11 0.10 0.09 0.09 0.11 0.13 0.14 0.14 0.12 0.11 0.13 0.16 0.16 0.14 0.18 0.28 0.32 0.38 0.24 0.08 0.06 0.08 0.10 0.13 0.15 0.20 0.24 0.30
0.01 0.01 0.03 0.07 0.09 0.09 0.09 0.10 0.13 0.14 0.13 0.12 0.12 0.13 0.14 0.13 0.11 0.11 0.11 0.11 0.12 0.14 0.14 0.14 0.13 0.13 0.14 0.17 0.19 0.18 0.17 0.18 0.27 0.42 0.20 0.04 0.04 0.05 0.08 0.11 0.14 0.19 0.24
0.01 0.02 0.03 0.05 0.09 0.09 0.10 0.11 0.13 0.14 0.14 0.15 0.15 0.15 0.15 0.15 0.14 0.12 0.12 0.12 0.13 0.14 0.15 0.17 0.17 0.14 0.14 0.16 0.18 0.20 0.25 0.29 0.27 0.36 0.34 0.15 0.09 0.05 0.07 0.09 0.12 0.17 0.23